(48666) = 1995 WU26 = 2001 DP11

Discovered at Kitt Peak on 1995-11-17 by Spacewatch.

Orbit

Orbit type: Main Belt

Note: WebGL enabled browser required.

epoch2023-09-13.0
epoch JD2460200.5
perihelion date2020-03-18.80746
perihelion JD2458927.30746
argument of perihelion (°)239.59148
ascending node (°)19.02942
inclination (°)2.38667
eccentricity0.1867810
perihelion distance (AU)1.9273160
Tisserand w.r.t. Jupiter3.5
ΔV w.r.t. Earth (km/sec)8.7
semimajor axis (AU)2.3699841
mean anomaly (°)343.93770
mean daily motion (°/day)0.27013800
aphelion distance (AU)2.813
period (years)3.65
P-vector [x]-0.19754357
P-vector [y]-0.88451241
P-vector [z]-0.42262790
Q-vector [x]0.98020007
Q-vector [y]-0.17225363
Q-vector [z]-0.09765505
absolute magnitude16.19
phase slope0.15
uncertainty0
referenceMPO 776684
observations used1064
oppositions19
arc length (days)11597
first opposition used1991
last opposition used2023
residual rms (arc-secs)0.74
perturbers coarse indicatorM-v
perturbers precise indicator003Ek
first observation date used1991-09-08.0
last observation date used2023-06-09.0
computer nameMPCLINUX
JD of orbit computation2456612.622744
perihelion JD uncertainty (days)6.0440E-05
argument of perihelion uncertainty (°)9.1621E-05
ascending node uncertainty (°)9.0277E-05
inclination uncertainty (°)5.6736E-06
eccentricity uncertainty 3.3765E-08
perihelion distance uncertainty (AU)8.1102E-08
Minimum Orbit Intersection Distances (in AU)
for orbit epoch: 2460200.5, reference: E2023-UC4
Mercury1.46083
Venus1.20167
Earth0.91279
Mars0.41467
Jupiter2.24511
Saturn6.25106
Uranus15.9726
Neptune27.1182

Observations

1092 total observations over interval: 1991 09 08.25438 – 2023 06 09.195121
These data are available for download (format description).

Date (UT) J2000 RA J2000 Dec Magn Location Ref
1991 09 08.25438 23 06 48.91 -08 20 44.7 19.8 V 691 – Steward Observatory, Kitt Peak-Spacewatch MPS 79370
1991 09 08.27483 23 06 47.68 -08 20 50.4 19.9 V 691 – Steward Observatory, Kitt Peak-Spacewatch MPS 79370
1991 09 08.29802 23 06 46.24 -08 20 56.8 19.8 V 691 – Steward Observatory, Kitt Peak-Spacewatch MPS 79370
1995 09 26.46781 02 08 10.15 +13 10 54.7 20.4 V 691 – Steward Observatory, Kitt Peak-Spacewatch MPS 27326
1995 09 26.48059 02 08 09.56 +13 10 52.3   691 – Steward Observatory, Kitt Peak-Spacewatch MPS 27326
1995 09 26.49333 02 08 08.99 +13 10 50.3   691 – Steward Observatory, Kitt Peak-Spacewatch MPS 27326
1995 11 17.12219 01 22 16.77 +09 39 13.8   691 – Steward Observatory, Kitt Peak-Spacewatch MPC 26333
1995 11 17.14337 01 22 15.95 +09 39 09.7   691 – Steward Observatory, Kitt Peak-Spacewatch MPC 26333
1995 11 17.16589 01 22 15.11 +09 39 05.8 19.8 V 691 – Steward Observatory, Kitt Peak-Spacewatch MPC 26333
1995 11 20.11292 01 20 36.21 +09 30 56.1   691 – Steward Observatory, Kitt Peak-Spacewatch MPC 26333
1995 11 20.13407 01 20 35.53 +09 30 52.9 20.2 V 691 – Steward Observatory, Kitt Peak-Spacewatch MPC 26333
1995 11 20.15523 01 20 34.84 +09 30 49.6   691 – Steward Observatory, Kitt Peak-Spacewatch MPC 26333
1995 11 27.07632 01 17 37.20 +09 16 30.6 20.4 V 691 – Steward Observatory, Kitt Peak-Spacewatch MPC 26333
1995 11 27.09770 01 17 36.73 +09 16 29.1   691 – Steward Observatory, Kitt Peak-Spacewatch MPC 26333
1995 11 27.11879 01 17 36.29 +09 16 26.8   691 – Steward Observatory, Kitt Peak-Spacewatch MPC 26333
1996 12 04.39102 08 35 35.32 +21 58 46.4 21.0 V 691 – Steward Observatory, Kitt Peak-Spacewatch MPS 81222
1996 12 04.47045 08 35 34.64 +21 58 54.3 20.6 V 691 – Steward Observatory, Kitt Peak-Spacewatch MPS 81222
1996 12 04.51652 08 35 34.22 +21 58 58.2 21.1 V 691 – Steward Observatory, Kitt Peak-Spacewatch MPS 81222
1999 12 14.23179 03 33 30.57 +21 49 05.2 21.2 V 691 – Steward Observatory, Kitt Peak-Spacewatch MPS 27326
1999 12 14.25496 03 33 29.38 +21 49 01.1 21.6 V 691 – Steward Observatory, Kitt Peak-Spacewatch MPS 27326
1999 12 14.27919 03 33 28.14 +21 48 57.3 20.9 V 691 – Steward Observatory, Kitt Peak-Spacewatch MPS 27326
2001 02 17.30724 10 42 24.52 +11 16 29.9 18.9   704 – Lincoln Laboratory ETS, New Mexico MPS 27001
2001 02 17.32137 10 42 23.64 +11 16 34.3 19.3   704 – Lincoln Laboratory ETS, New Mexico MPS 27001
2001 02 17.33551 10 42 22.77 +11 16 37.0 19.9   704 – Lincoln Laboratory ETS, New Mexico MPS 27001
2001 02 17.36374 10 42 21.10 +11 16 47.5 19.5   704 – Lincoln Laboratory ETS, New Mexico MPS 27001
2001 02 19.20168 10 40 34.32 +11 26 33.0 18.8 R 699 – Lowell Observatory-LONEOS MPS 27001
2001 02 19.24065 10 40 32.01 +11 26 44.9   699 – Lowell Observatory-LONEOS MPS 27001
2001 02 19.27977 10 40 29.61 +11 26 57.9   699 – Lowell Observatory-LONEOS MPS 27001
2001 02 19.30286 10 40 28.21 +11 27 04.1 19.0   704 – Lincoln Laboratory ETS, New Mexico MPS 27001
2001 02 19.31717 10 40 27.40 +11 27 10.0 19.2   704 – Lincoln Laboratory ETS, New Mexico MPS 27001
2001 02 19.31914 10 40 27.27 +11 27 09.8   699 – Lowell Observatory-LONEOS MPS 27001
2001 02 19.33147 10 40 26.50 +11 27 13.0 18.5   704 – Lincoln Laboratory ETS, New Mexico MPS 27001
2001 02 19.34600 10 40 25.55 +11 27 18.6 19.2   704 – Lincoln Laboratory ETS, New Mexico MPS 27001
2001 02 19.36030 10 40 24.74 +11 27 23.6 18.7   704 – Lincoln Laboratory ETS, New Mexico MPS 27001
2001 02 20.35172 10 39 25.85 +11 32 41.1 18.5   704 – Lincoln Laboratory ETS, New Mexico MPS 27001
2001 02 20.36451 10 39 25.02 +11 32 45.0 18.8   704 – Lincoln Laboratory ETS, New Mexico MPS 27001
2001 02 20.36600 10 39 24.95 +11 32 44.7 19.2   704 – Lincoln Laboratory ETS, New Mexico MPS 27001
2001 02 20.37888 10 39 24.14 +11 32 49.3 18.7   704 – Lincoln Laboratory ETS, New Mexico MPS 27001
2001 02 20.38040 10 39 24.10 +11 32 50.2 19.0   704 – Lincoln Laboratory ETS, New Mexico MPS 27001
2001 02 20.39307 10 39 23.33 +11 32 53.8 19.0   704 – Lincoln Laboratory ETS, New Mexico MPS 27001
2001 02 20.39461 10 39 23.17 +11 32 54.5 18.9   704 – Lincoln Laboratory ETS, New Mexico MPS 27001
2001 02 20.40812 10 39 22.37 +11 32 59.6 19.3   704 – Lincoln Laboratory ETS, New Mexico MPS 27001
2001 02 20.40884 10 39 22.28 +11 32 58.4 19.1   704 – Lincoln Laboratory ETS, New Mexico MPS 27001
2001 02 20.42317 10 39 21.52 +11 33 03.6 19.5   704 – Lincoln Laboratory ETS, New Mexico MPS 27001
2001 03 19.24570 10 13 16.49 +13 33 58.7 18.9   704 – Lincoln Laboratory ETS, New Mexico MPS 28015
2001 03 19.25453 10 13 16.08 +13 34 00.3 19.2   704 – Lincoln Laboratory ETS, New Mexico MPS 28015
2001 03 19.26748 10 13 15.42 +13 34 03.2 19.1   704 – Lincoln Laboratory ETS, New Mexico MPS 28015
2001 03 19.28043 10 13 14.77 +13 34 06.2 18.8   704 – Lincoln Laboratory ETS, New Mexico MPS 28015
2001 03 19.28673 10 13 14.39 +13 34 06.1 19.6   704 – Lincoln Laboratory ETS, New Mexico MPS 28015
2001 03 19.29340 10 13 14.19 +13 34 07.7 19.3   704 – Lincoln Laboratory ETS, New Mexico MPS 28015
2001 03 19.29960 10 13 13.78 +13 34 08.5 19.6   704 – Lincoln Laboratory ETS, New Mexico MPS 28015
2002 08 12.31129 00 02 06.96 -02 18 55.9 19.3   704 – Lincoln Laboratory ETS, New Mexico MPS 81795
2002 08 12.32625 00 02 06.53 -02 18 57.3 19.8   704 – Lincoln Laboratory ETS, New Mexico MPS 81795
2002 08 12.34128 00 02 06.09 -02 18 59.2 19.9   704 – Lincoln Laboratory ETS, New Mexico MPS 81795
2002 08 30.36385 23 50 23.61 -03 24 40.3 19.7 V 291 – LPL/Spacewatch II MPS 62509
2002 08 30.37480 23 50 23.02 -03 24 43.1 19.5 V 291 – LPL/Spacewatch II MPS 62509
2002 08 30.38364 23 50 22.55 -03 24 45.7 19.6 V 291 – LPL/Spacewatch II MPS 62509
2002 09 04.30100 23 45 58.98 -03 48 40.9 18.6 R 699 – Lowell Observatory-LONEOS MPS 60700
2002 09 04.32908 23 45 57.31 -03 48 48.9   699 – Lowell Observatory-LONEOS MPS 60700
2002 09 04.35714 23 45 55.75 -03 48 57.6   699 – Lowell Observatory-LONEOS MPS 60700
2002 09 04.38523 23 45 54.08 -03 49 05.7   699 – Lowell Observatory-LONEOS MPS 60700
2002 09 05.27527 23 45 04.40 -03 53 34.6 18.5   704 – Lincoln Laboratory ETS, New Mexico MPS 62509
2002 09 05.30336 23 45 02.66 -03 53 43.3 19.0   704 – Lincoln Laboratory ETS, New Mexico MPS 62509
2002 09 05.31732 23 45 01.93 -03 53 47.3 18.9   704 – Lincoln Laboratory ETS, New Mexico MPS 62509
2002 09 05.33134 23 45 01.11 -03 53 52.0 19.3   704 – Lincoln Laboratory ETS, New Mexico MPS 62509
2002 09 05.56335 23 44 47.75 -03 55 01.2 19.7   608 – Haleakala-AMOS MPS 62509
2002 09 05.57376 23 44 47.17 -03 55 04.6 20.0   608 – Haleakala-AMOS MPS 62509
2002 09 05.58458 23 44 46.51 -03 55 07.3 19.7   608 – Haleakala-AMOS MPS 62509
2002 09 07.26498 23 43 11.05 -04 03 40.8 19.0   704 – Lincoln Laboratory ETS, New Mexico MPS 60700
2002 09 07.27906 23 43 10.20 -04 03 44.8 19.3   704 – Lincoln Laboratory ETS, New Mexico MPS 60700
2002 09 07.29306 23 43 09.40 -04 03 49.7 19.3   704 – Lincoln Laboratory ETS, New Mexico MPS 60700
2002 09 07.30705 23 43 08.56 -04 03 54.1 19.2   704 – Lincoln Laboratory ETS, New Mexico MPS 60700
2002 09 07.32116 23 43 07.69 -04 03 58.4 19.4   704 – Lincoln Laboratory ETS, New Mexico MPS 60700
2002 09 15.43166 23 35 12.30 -04 45 16.6 18.2   644 – Palomar Mountain/NEAT MPS 60700
2002 09 15.45395 23 35 10.94 -04 45 23.2 18.6   644 – Palomar Mountain/NEAT MPS 60700
2002 09 15.47496 23 35 09.68 -04 45 29.3 18.6   644 – Palomar Mountain/NEAT MPS 60700
2002 09 17.41253 23 33 16.55 -04 55 01.7 19.4   608 – Haleakala-AMOS MPS 62509
2002 09 17.42366 23 33 15.86 -04 55 05.4 19.4   608 – Haleakala-AMOS MPS 62509
2002 09 17.43438 23 33 15.23 -04 55 08.6 19.6   608 – Haleakala-AMOS MPS 62509
2002 10 03.18240 23 19 24.08 -06 00 25.3 19.1   704 – Lincoln Laboratory ETS, New Mexico MPS 62509
2002 10 03.19813 23 19 23.33 -06 00 28.0 19.3   704 – Lincoln Laboratory ETS, New Mexico MPS 62509
2002 10 03.21390 23 19 22.64 -06 00 31.0 19.5   704 – Lincoln Laboratory ETS, New Mexico MPS 62509
2002 10 03.22964 23 19 21.83 -06 00 33.9 19.0   704 – Lincoln Laboratory ETS, New Mexico MPS 62509
2002 10 03.24542 23 19 21.14 -06 00 37.1 19.2   704 – Lincoln Laboratory ETS, New Mexico MPS 62509
